QPF
0.00 0.00 0.00 0.01 0.01 0.01 0.00 0.00 0.00 0.00 0.00 0.00 0.00 0.01 0.01 0.01 0.01 0.01 0.02 0.02 0.02 0.03 0.02 0.02 0.03 0.02 0.03 0.03 0.03 0.02 0.02 0.03 0.03 0.03 0.03 0.02 0.02 0.02 0.01 0.01 0.01 0.02 0.01
0.00 0.01 0.01 0.01 0.01 0.01 0.01 0.00 0.00 0.00 0.00 0.00 0.00 0.00 0.01 0.01 0.01 0.01 0.01 0.01 0.01 0.02 0.02 0.01 0.02 0.02 0.03 0.02 0.03 0.03 0.03 0.03 0.03 0.02 0.02 0.03 0.02 0.02 0.02 0.01 0.01 0.01 0.01
0.01 0.01 0.01 0.01 0.01 0.01 0.00 0.00 0.00 0.01 0.00 0.00 0.00 0.01 0.01 0.01 0.01 0.01 0.01 0.01 0.01 0.01 0.02 0.02 0.02 0.02 0.02 0.01 0.02 0.03 0.03 0.03 0.02 0.02 0.02 0.01 0.02 0.02 0.02 0.02 0.02 0.01 0.01
0.01 0.01 0.00 0.01 0.01 0.01 0.01 0.00 0.01 0.01 0.00 0.00 0.00 0.01 0.01 0.01 0.01 0.01 0.01 0.02 0.01 0.01 0.01 0.01 0.02 0.02 0.02 0.02 0.03 0.04 0.04 0.04 0.03 0.02 0.02 0.01 0.01 0.02 0.02 0.02 0.03 0.02 0.02
0.01 0.01 0.00 0.00 0.00 0.00 0.01 0.01 0.01 0.01 0.01 0.01 0.01 0.01 0.01 0.01 0.01 0.01 0.01 0.01 0.02 0.01 0.01 0.01 0.02 0.02 0.03 0.03 0.03 0.04 0.04 0.05 0.04 0.03 0.02 0.02 0.02 0.02 0.03 0.03 0.03 0.03 0.03
0.00 0.00 0.00 0.00 0.00 0.00 0.01 0.01 0.01 0.02 0.01 0.02 0.02 0.01 0.01 0.01 0.01 0.01 0.01 0.01 0.02 0.02 0.01 0.01 0.01 0.02 0.02 0.02 0.03 0.04 0.04 0.03 0.03 0.03 0.02 0.01 0.01 0.01 0.01 0.03 0.04 0.04 0.05
0.00 0.00 0.00 0.00 0.00 0.00 0.00 0.01 0.01 0.02 0.02 0.02 0.02 0.02 0.02 0.02 0.02 0.02 0.01 0.01 0.01 0.02 0.01 0.02 0.02 0.01 0.02 0.01 0.02 0.02 0.02 0.02 0.02 0.02 0.02 0.01 0.01 0.00 0.00 0.01 0.02 0.03 0.04
0.00 0.00 0.00 0.01 0.00 0.00 0.00 0.00 0.01 0.01 0.02 0.02 0.01 0.01 0.02 0.02 0.02 0.03 0.02 0.01 0.01 0.02 0.02 0.02 0.02 0.01 0.01 0.01 0.01 0.02 0.01 0.01 0.01 0.01 0.01 0.01 0.01 0.01 0.01 0.01 0.01 0.02 0.02
0.01 0.01 0.00 0.01 0.01 0.01 0.01 0.01 0.01 0.01 0.01 0.01 0.01 0.01 0.01 0.01 0.01 0.02 0.02 0.01 0.02 0.02 0.01 0.01 0.02 0.02 0.01 0.01 0.01 0.01 0.01 0.00 0.01 0.01 0.01 0.01 0.02 0.02 0.01 0.01 0.01 0.01 0.01
0.02 0.01 0.01 0.01 0.01 0.01 0.01 0.01 0.01 0.01 0.01 0.01 0.02 0.02 0.02 0.02 0.02 0.02 0.02 0.01 0.02 0.02 0.01 0.01 0.03 0.03 0.02 0.02 0.01 0.01 0.00 0.00 0.00 0.00 0.01 0.01 0.01 0.01 0.02 0.01 0.00 0.01 0.01
0.01 0.02 0.01 0.01 0.01 0.01 0.01 0.01 0.01 0.01 0.01 0.02 0.02 0.02 0.02 0.02 0.03 0.03 0.03 0.02 0.03 0.02 0.02 0.01 0.01 0.03 0.02 0.02 0.01 0.01 0.01 0.01 0.01 0.01 0.01 0.01 0.01 0.01 0.01 0.01 0.00 0.01 0.01
0.01 0.02 0.02 0.02 0.02 0.01 0.01 0.01 0.01 0.01 0.01 0.02 0.02 0.02 0.02 0.02 0.03 0.04 0.03 0.03 0.02 0.02 0.02 0.01 0.02 0.03 0.03 0.03 0.02 0.01 0.01 0.01 0.01 0.02 0.02 0.02 0.02 0.01 0.01 0.01 0.00 0.00 0.01
0.01 0.01 0.02 0.02 0.02 0.02 0.01 0.01 0.01 0.01 0.02 0.02 0.02 0.01 0.02 0.02 0.02 0.03 0.04 0.04 0.03 0.02 0.02 0.02 0.03 0.03 0.03 0.03 0.02 0.02 0.01 0.01 0.01 0.02 0.01 0.01 0.01 0.01 0.01 0.01 0.01 0.01 0.01
0.01 0.01 0.01 0.01 0.01 0.01 0.01 0.01 0.01 0.01 0.02 0.02 0.01 0.02 0.02 0.02 0.02 0.02 0.03 0.03 0.04 0.03 0.03 0.03 0.02 0.02 0.02 0.02 0.02 0.02 0.02 0.01 0.01 0.01 0.01 0.02 0.01 0.01 0.02 0.01 0.01 0.01 0.01
0.01 0.01 0.01 0.02 0.01 0.01 0.01 0.01 0.02 0.02 0.02 0.02 0.02 0.02 0.02 0.02 0.02 0.03 0.03 0.03 0.03 0.03 0.03 0.03 0.02 0.02 0.02 0.02 0.02 0.02 0.02 0.01 0.01 0.01 0.01 0.02 0.02 0.02 0.02 0.02 0.01 0.01 0.01
0.01 0.01 0.01 0.01 0.01 0.01 0.01 0.01 0.01 0.01 0.02 0.02 0.02 0.02 0.02 0.02 0.02 0.02 0.03 0.03 0.03 0.04 0.04 0.03 0.02 0.02 0.03 0.02 0.02 0.02 0.02 0.02 0.02 0.02 0.02 0.02 0.03 0.03 0.02 0.02 0.02 0.02 0.01
0.01 0.01 0.01 0.01 0.01 0.01 0.01 0.01 0.01 0.01 0.02 0.02 0.03 0.02 0.01 0.01 0.02 0.02 0.03 0.04 0.04 0.04 0.03 0.03 0.02 0.02 0.02 0.02 0.02 0.02 0.02 0.03 0.03 0.04 0.04 0.04 0.04 0.04 0.04 0.03 0.03 0.03 0.03
0.01 0.01 0.01 0.01 0.01 0.01 0.01 0.01 0.01 0.02 0.02 0.03 0.03 0.02 0.02 0.02 0.02 0.02 0.03 0.04 0.05 0.06 0.04 0.03 0.02 0.02 0.02 0.02 0.02 0.02 0.02 0.02 0.03 0.04 0.04 0.04 0.04 0.04 0.05 0.04 0.03 0.03 0.03
0.00 0.01 0.01 0.01 0.01 0.01 0.01 0.01 0.01 0.02 0.03 0.03 0.03 0.03 0.03 0.03 0.02 0.02 0.02 0.03 0.05 0.05 0.04 0.04 0.03 0.02 0.02 0.02 0.02 0.02 0.02 0.02 0.02 0.02 0.03 0.03 0.03 0.03 0.03 0.03 0.03 0.03 0.03
0.01 0.01 0.01 0.01 0.01 0.01 0.00 0.01 0.01 0.02 0.02 0.02 0.03 0.04 0.04 0.04 0.03 0.02 0.02 0.02 0.04 0.04 0.04 0.04 0.04 0.04 0.03 0.02 0.02 0.02 0.02 0.02 0.02 0.02 0.02 0.02 0.03 0.03 0.03 0.03 0.03 0.03 0.02
0.01 0.01 0.02 0.01 0.01 0.01 0.00 0.01 0.01 0.01 0.01 0.01 0.02 0.03 0.04 0.04 0.04 0.03 0.03 0.03 0.03 0.04 0.04 0.04 0.04 0.04 0.04 0.03 0.02 0.02 0.02 0.02 0.02 0.02 0.02 0.02 0.02 0.02 0.02 0.03 0.03 0.03 0.02
0.03 0.02 0.02 0.02 0.01 0.01 0.01 0.01 0.00 0.01 0.01 0.01 0.01 0.02 0.02 0.03 0.03 0.04 0.04 0.04 0.04 0.04 0.04 0.04 0.04 0.04 0.05 0.04 0.03 0.02 0.03 0.03 0.02 0.02 0.02 0.02 0.02 0.02 0.02 0.02 0.02 0.02 0.02
0.03 0.03 0.03 0.03 0.03 0.02 0.02 0.01 0.01 0.01 0.01 0.01 0.01 0.02 0.02 0.02 0.02 0.03 0.03 0.04 0.04 0.04 0.05 0.06 0.06 0.05 0.04 0.03 0.03 0.02 0.02 0.03 0.03 0.02 0.03 0.03 0.03 0.03 0.03 0.02 0.02 0.02 0.02
0.03 0.03 0.03 0.03 0.03 0.03 0.03 0.03 0.03 0.03 0.03 0.03 0.02 0.02 0.02 0.02 0.02 0.02 0.02 0.03 0.04 0.04 0.04 0.05 0.05 0.05 0.04 0.04 0.04 0.03 0.03 0.02 0.02 0.03 0.04 0.04 0.04 0.04 0.03 0.03 0.03 0.02 0.02
0.01 0.01 0.01 0.02 0.02 0.03 0.03 0.03 0.03 0.04 0.04 0.04 0.03 0.03 0.02 0.02 0.02 0.02 0.02 0.03 0.03 0.03 0.03 0.03 0.03 0.03 0.03 0.03 0.03 0.03 0.03 0.03 0.03 0.03 0.03 0.04 0.04 0.04 0.03 0.03 0.03 0.02 0.02
0.00 0.00 0.01 0.01 0.01 0.01 0.01 0.02 0.02 0.03 0.03 0.04 0.04 0.03 0.03 0.03 0.03 0.02 0.02 0.02 0.02 0.02 0.01 0.01 0.02 0.02 0.02 0.03 0.03 0.03 0.03 0.02 0.02 0.03 0.03 0.04 0.03 0.03 0.03 0.03 0.03 0.03 0.03
MSLP
1013.79 1014.19 1014.72 1015.33 1015.98 1016.61 1017.20 1017.73 1018.19 1018.60 1018.96 1019.30 1019.63 1019.96 1020.26 1020.54 1020.78 1020.96 1021.07 1021.11 1021.09 1021.04 1020.97 1020.90 1020.87 1020.88 1020.97 1021.13 1021.37 1021.69 1022.07 1022.50 1022.96 1023.41 1023.85 1024.25 1024.57 1024.83 1025.00 1025.10 1025.14 1025.14 1025.12
1013.20 1013.65 1014.23 1014.88 1015.57 1016.26 1016.90 1017.48 1018.00 1018.45 1018.85 1019.22 1019.56 1019.89 1020.20 1020.47 1020.71 1020.90 1021.03 1021.10 1021.13 1021.11 1021.07 1021.03 1021.02 1021.04 1021.11 1021.25 1021.47 1021.75 1022.10 1022.50 1022.94 1023.38 1023.82 1024.21 1024.54 1024.81 1025.00 1025.11 1025.18 1025.20 1025.20
1012.76 1013.25 1013.86 1014.55 1015.26 1015.97 1016.64 1017.24 1017.78 1018.25 1018.67 1019.05 1019.40 1019.72 1020.03 1020.31 1020.56 1020.77 1020.93 1021.05 1021.12 1021.16 1021.18 1021.19 1021.21 1021.25 1021.32 1021.45 1021.64 1021.89 1022.20 1022.57 1022.96 1023.37 1023.77 1024.14 1024.46 1024.72 1024.90 1025.02 1025.09 1025.13 1025.15
1012.51 1013.03 1013.65 1014.33 1015.04 1015.73 1016.39 1016.98 1017.51 1017.98 1018.41 1018.78 1019.13 1019.46 1019.77 1020.06 1020.33 1020.57 1020.78 1020.95 1021.08 1021.19 1021.26 1021.33 1021.38 1021.45 1021.54 1021.66 1021.82 1022.04 1022.30 1022.61 1022.95 1023.32 1023.67 1024.00 1024.29 1024.52 1024.69 1024.81 1024.88 1024.92 1024.95
1012.50 1013.01 1013.61 1014.25 1014.91 1015.55 1016.16 1016.72 1017.21 1017.66 1018.07 1018.44 1018.79 1019.12 1019.45 1019.75 1020.05 1020.32 1020.57 1020.79 1020.98 1021.14 1021.27 1021.38 1021.48 1021.57 1021.66 1021.77 1021.91 1022.09 1022.30 1022.56 1022.84 1023.14 1023.45 1023.73 1023.99 1024.19 1024.35 1024.46 1024.54 1024.59 1024.63
1012.77 1013.23 1013.76 1014.32 1014.90 1015.45 1015.98 1016.47 1016.91 1017.32 1017.70 1018.06 1018.41 1018.75 1019.08 1019.41 1019.72 1020.02 1020.31 1020.56 1020.79 1021.00 1021.17 1021.31 1021.43 1021.53 1021.63 1021.73 1021.84 1021.98 1022.15 1022.35 1022.57 1022.82 1023.08 1023.32 1023.54 1023.73 1023.89 1024.01 1024.09 1024.15 1024.21
1013.32 1013.70 1014.13 1014.58 1015.04 1015.49 1015.91 1016.31 1016.68 1017.04 1017.38 1017.72 1018.06 1018.40 1018.74 1019.07 1019.39 1019.71 1020.00 1020.27 1020.52 1020.73 1020.92 1021.07 1021.20 1021.31 1021.40 1021.48 1021.57 1021.68 1021.81 1021.96 1022.15 1022.35 1022.57 1022.79 1022.99 1023.18 1023.34 1023.46 1023.57 1023.66 1023.73
1014.15 1014.42 1014.73 1015.06 1015.39 1015.71 1016.01 1016.31 1016.61 1016.90 1017.20 1017.51 1017.82 1018.15 1018.47 1018.79 1019.10 1019.40 1019.68 1019.94 1020.17 1020.37 1020.54 1020.69 1020.81 1020.90 1020.98 1021.05 1021.13 1021.21 1021.32 1021.45 1021.61 1021.79 1021.98 1022.19 1022.39 1022.57 1022.74 1022.89 1023.02 1023.13 1023.23
1015.22 1015.39 1015.58 1015.77 1015.97 1016.17 1016.36 1016.56 1016.76 1016.99 1017.23 1017.49 1017.77 1018.06 1018.35 1018.64 1018.91 1019.16 1019.40 1019.61 1019.80 1019.96 1020.10 1020.22 1020.32 1020.40 1020.47 1020.53 1020.60 1020.68 1020.77 1020.89 1021.04 1021.20 1021.39 1021.59 1021.79 1021.98 1022.17 1022.34 1022.49 1022.62 1022.74
1016.45 1016.52 1016.61 1016.69 1016.78 1016.86 1016.96 1017.06 1017.19 1017.35 1017.53 1017.74 1017.96 1018.20 1018.43 1018.65 1018.86 1019.05 1019.22 1019.36 1019.49 1019.60 1019.69 1019.77 1019.83 1019.89 1019.95 1020.01 1020.08 1020.16 1020.26 1020.38 1020.52 1020.68 1020.86 1021.05 1021.25 1021.45 1021.64 1021.82 1021.99 1022.14 1022.27
1017.73 1017.74 1017.75 1017.76 1017.76 1017.77 1017.78 1017.82 1017.88 1017.97 1018.09 1018.23 1018.39 1018.56 1018.72 1018.87 1019.00 1019.10 1019.19 1019.25 1019.30 1019.34 1019.38 1019.41 1019.45 1019.49 1019.54 1019.59 1019.66 1019.75 1019.85 1019.97 1020.11 1020.26 1020.43 1020.61 1020.80 1020.99 1021.17 1021.35 1021.52 1021.67 1021.80
1018.96 1018.94 1018.91 1018.88 1018.83 1018.79 1018.75 1018.73 1018.74 1018.78 1018.84 1018.93 1019.02 1019.11 1019.20 1019.27 1019.31 1019.33 1019.33 1019.31 1019.29 1019.26 1019.23 1019.22 1019.22 1019.24 1019.27 1019.33 1019.39 1019.48 1019.58 1019.69 1019.82 1019.95 1020.10 1020.25 1020.41 1020.57 1020.73 1020.89 1021.05 1021.19 1021.32
1020.03 1020.01 1019.97 1019.92 1019.86 1019.80 1019.74 1019.70 1019.67 1019.67 1019.69 1019.72 1019.75 1019.78 1019.80 1019.79 1019.76 1019.70 1019.62 1019.53 1019.44 1019.35 1019.27 1019.21 1019.17 1019.16 1019.17 1019.21 1019.26 1019.33 1019.41 1019.51 1019.61 1019.71 1019.82 1019.93 1020.05 1020.17 1020.29 1020.41 1020.54 1020.67 1020.78
1020.86 1020.85 1020.82 1020.78 1020.73 1020.68 1020.62 1020.57 1020.53 1020.51 1020.49 1020.48 1020.47 1020.45 1020.41 1020.34 1020.25 1020.13 1020.00 1019.85 1019.70 1019.56 1019.43 1019.32 1019.24 1019.19 1019.17 1019.18 1019.20 1019.25 1019.30 1019.35 1019.41 1019.47 1019.53 1019.59 1019.65 1019.72 1019.79 1019.88 1019.98 1020.08 1020.18
1021.40 1021.41 1021.41 1021.39 1021.36 1021.32 1021.28 1021.23 1021.19 1021.15 1021.12 1021.09 1021.05 1020.99 1020.91 1020.81 1020.69 1020.53 1020.36 1020.17 1019.98 1019.80 1019.63 1019.48 1019.36 1019.26 1019.19 1019.16 1019.14 1019.13 1019.14 1019.15 1019.16 1019.16 1019.17 1019.17 1019.18 1019.19 1019.22 1019.27 1019.33 1019.41 1019.51
1021.69 1021.71 1021.72 1021.72 1021.71 1021.68 1021.65 1021.61 1021.57 1021.53 1021.48 1021.43 1021.38 1021.31 1021.21 1021.10 1020.96 1020.79 1020.60 1020.40 1020.18 1019.97 1019.76 1019.57 1019.40 1019.26 1019.14 1019.05 1018.98 1018.93 1018.88 1018.84 1018.80 1018.75 1018.70 1018.66 1018.62 1018.59 1018.58 1018.59 1018.63 1018.69 1018.78
1021.78 1021.81 1021.82 1021.83 1021.82 1021.79 1021.76 1021.71 1021.67 1021.61 1021.56 1021.50 1021.43 1021.36 1021.26 1021.14 1021.01 1020.84 1020.65 1020.44 1020.22 1019.99 1019.76 1019.53 1019.32 1019.14 1018.97 1018.83 1018.71 1018.60 1018.51 1018.42 1018.33 1018.25 1018.16 1018.08 1018.00 1017.94 1017.90 1017.88 1017.90 1017.94 1018.01
1021.80 1021.81 1021.80 1021.79 1021.76 1021.72 1021.67 1021.61 1021.53 1021.46 1021.39 1021.31 1021.23 1021.15 1021.06 1020.95 1020.82 1020.66 1020.49 1020.28 1020.06 1019.82 1019.58 1019.34 1019.10 1018.88 1018.68 1018.49 1018.33 1018.19 1018.06 1017.94 1017.82 1017.71 1017.60 1017.49 1017.39 1017.31 1017.24 1017.20 1017.19 1017.21 1017.26
1021.84 1021.81 1021.77 1021.72 1021.66 1021.58 1021.49 1021.38 1021.28 1021.17 1021.06 1020.96 1020.86 1020.76 1020.66 1020.56 1020.44 1020.30 1020.14 1019.96 1019.75 1019.52 1019.27 1019.02 1018.78 1018.54 1018.31 1018.11 1017.93 1017.76 1017.61 1017.48 1017.35 1017.22 1017.10 1016.98 1016.86 1016.76 1016.67 1016.60 1016.56 1016.55 1016.56
1021.97 1021.90 1021.82 1021.72 1021.61 1021.48 1021.33 1021.17 1021.00 1020.84 1020.69 1020.55 1020.42 1020.30 1020.19 1020.08 1019.97 1019.85 1019.70 1019.54 1019.35 1019.14 1018.91 1018.68 1018.44 1018.20 1017.98 1017.77 1017.58 1017.41 1017.26 1017.12 1016.99 1016.86 1016.73 1016.60 1016.47 1016.35 1016.23 1016.13 1016.04 1015.97 1015.93
1022.23 1022.13 1022.00 1021.85 1021.68 1021.48 1021.27 1021.05 1020.82 1020.60 1020.39 1020.20 1020.03 1019.88 1019.76 1019.64 1019.53 1019.41 1019.29 1019.15 1018.99 1018.80 1018.61 1018.40 1018.18 1017.96 1017.76 1017.56 1017.39 1017.23 1017.08 1016.94 1016.81 1016.68 1016.54 1016.40 1016.25 1016.10 1015.94 1015.79 1015.65 1015.51 1015.39
1022.61 1022.47 1022.30 1022.11 1021.88 1021.63 1021.36 1021.07 1020.78 1020.50 1020.24 1020.00 1019.79 1019.61 1019.46 1019.33 1019.22 1019.11 1019.00 1018.88 1018.75 1018.60 1018.44 1018.26 1018.08 1017.89 1017.71 1017.54 1017.38 1017.23 1017.09 1016.95 1016.81 1016.67 1016.52 1016.35 1016.17 1015.98 1015.78 1015.57 1015.36 1015.14 1014.94
1023.03 1022.87 1022.68 1022.45 1022.19 1021.89 1021.57 1021.24 1020.91 1020.58 1020.28 1020.00 1019.76 1019.55 1019.38 1019.24 1019.12 1019.01 1018.92 1018.82 1018.71 1018.59 1018.46 1018.32 1018.16 1018.01 1017.85 1017.70 1017.55 1017.40 1017.26 1017.11 1016.96 1016.79 1016.61 1016.41 1016.19 1015.95 1015.69 1015.42 1015.14 1014.85 1014.55
1023.42 1023.26 1023.05 1022.81 1022.53 1022.21 1021.87 1021.51 1021.16 1020.81 1020.48 1020.18 1019.92 1019.70 1019.51 1019.36 1019.24 1019.14 1019.05 1018.96 1018.86 1018.76 1018.65 1018.53 1018.39 1018.25 1018.10 1017.95 1017.80 1017.65 1017.48 1017.31 1017.13 1016.93 1016.71 1016.47 1016.20 1015.91 1015.60 1015.28 1014.93 1014.57 1014.21
1023.70 1023.54 1023.34 1023.10 1022.82 1022.50 1022.17 1021.81 1021.46 1021.12 1020.79 1020.49 1020.23 1020.01 1019.82 1019.67 1019.54 1019.43 1019.34 1019.24 1019.15 1019.05 1018.93 1018.81 1018.67 1018.52 1018.36 1018.19 1018.02 1017.83 1017.64 1017.43 1017.21 1016.96 1016.70 1016.41 1016.11 1015.78 1015.43 1015.06 1014.67 1014.27 1013.85
1023.83 1023.68 1023.49 1023.26 1023.00 1022.71 1022.40 1022.08 1021.75 1021.44 1021.14 1020.86 1020.62 1020.41 1020.22 1020.07 1019.93 1019.81 1019.70 1019.59 1019.47 1019.34 1019.20 1019.04 1018.87 1018.69 1018.49 1018.29 1018.07 1017.84 1017.60 1017.34 1017.07 1016.78 1016.48 1016.16 1015.81 1015.45 1015.08 1014.69 1014.29 1013.86 1013.43
Thickness
5685 5683 5679 5676 5674 5672 5669 5667 5665 5663 5661 5659 5658 5656 5654 5653 5652 5650 5649 5648 5646 5646 5646 5645 5644 5644 5643 5642 5641 5640 5638 5636 5630 5632 5635 5636 5637 5637 5637 5638 5638 5638 5638
5681 5678 5674 5671 5669 5666 5664 5662 5660 5658 5656 5654 5653 5650 5649 5648 5647 5645 5643 5642 5641 5640 5640 5640 5639 5639 5637 5637 5636 5634 5633 5632 5629 5626 5628 5629 5631 5632 5632 5632 5633 5634 5634
5677 5672 5668 5665 5662 5660 5657 5656 5654 5652 5650 5649 5647 5644 5643 5642 5641 5640 5638 5637 5636 5636 5635 5634 5633 5633 5631 5631 5630 5629 5628 5628 5626 5623 5622 5624 5625 5626 5626 5627 5628 5629 5630
5671 5667 5663 5660 5657 5654 5652 5650 5648 5646 5644 5642 5641 5639 5637 5636 5635 5634 5633 5632 5631 5631 5630 5630 5629 5628 5627 5626 5625 5624 5623 5621 5620 5618 5617 5617 5618 5619 5619 5619 5619 5622 5623
5665 5661 5657 5655 5652 5649 5646 5644 5642 5640 5638 5636 5634 5633 5631 5629 5628 5627 5626 5626 5625 5624 5625 5624 5623 5623 5622 5621 5620 5618 5617 5614 5612 5611 5610 5610 5610 5611 5611 5613 5613 5615 5616
5658 5654 5651 5649 5645 5642 5640 5637 5635 5633 5631 5629 5627 5625 5623 5622 5621 5620 5620 5619 5619 5618 5617 5617 5617 5616 5616 5616 5615 5614 5613 5610 5607 5605 5604 5604 5605 5606 5607 5607 5607 5607 5607
5652 5647 5644 5641 5638 5635 5633 5630 5628 5626 5624 5622 5620 5618 5616 5614 5613 5613 5613 5613 5612 5612 5611 5610 5611 5611 5609 5609 5609 5608 5607 5607 5606 5603 5600 5600 5600 5601 5602 5602 5601 5601 5601
5644 5640 5637 5633 5630 5628 5625 5623 5621 5619 5617 5614 5613 5610 5608 5607 5606 5606 5606 5606 5607 5607 5606 5605 5603 5603 5603 5603 5602 5601 5600 5601 5601 5600 5599 5598 5598 5598 5598 5598 5597 5598 5599
5636 5633 5630 5626 5622 5620 5618 5616 5614 5612 5610 5607 5605 5603 5600 5598 5598 5598 5598 5599 5600 5600 5600 5599 5598 5597 5597 5597 5596 5594 5593 5594 5595 5595 5595 5594 5594 5594 5594 5592 5591 5589 5589
5628 5625 5623 5620 5616 5613 5611 5609 5607 5605 5602 5600 5598 5596 5594 5591 5591 5590 5590 5591 5591 5592 5592 5592 5591 5590 5590 5589 5588 5587 5585 5586 5587 5587 5586 5587 5587 5587 5588 5587 5585 5583 5582
5621 5618 5615 5612 5609 5607 5604 5601 5599 5597 5595 5592 5590 5588 5586 5584 5583 5583 5582 5582 5583 5584 5583 5583 5583 5583 5582 5582 5582 5580 5580 5580 5579 5579 5578 5578 5579 5579 5580 5580 5580 5579 5577
5613 5609 5606 5603 5601 5599 5595 5592 5591 5588 5585 5583 5581 5579 5577 5576 5575 5574 5574 5574 5575 5575 5575 5575 5575 5575 5575 5574 5574 5574 5574 5573 5571 5570 5570 5570 5570 5571 5572 5573 5573 5573 5573
5603 5599 5597 5594 5591 5588 5585 5583 5581 5578 5575 5573 5571 5569 5568 5568 5566 5566 5566 5566 5566 5566 5567 5567 5567 5567 5567 5566 5566 5566 5565 5564 5562 5561 5561 5562 5564 5564 5564 5564 5565 5565 5565
5593 5589 5587 5583 5580 5578 5575 5573 5571 5568 5565 5563 5561 5559 5558 5558 5556 5556 5556 5556 5557 5557 5557 5558 5558 5558 5557 5557 5557 5556 5556 5555 5554 5553 5553 5554 5555 5555 5555 5555 5555 5554 5553
5583 5580 5577 5573 5570 5567 5564 5561 5560 5558 5557 5554 5552 5550 5548 5547 5546 5546 5545 5546 5546 5547 5547 5548 5547 5547 5546 5546 5547 5547 5546 5546 5545 5545 5544 5544 5544 5544 5545 5545 5545 5545 5544
5574 5571 5567 5564 5561 5557 5553 5550 5548 5547 5546 5545 5543 5541 5540 5539 5537 5536 5536 5536 5537 5537 5536 5537 5537 5537 5536 5536 5536 5536 5536 5535 5535 5535 5534 5534 5534 5534 5534 5534 5534 5534 5534
5566 5563 5559 5556 5552 5548 5545 5542 5539 5537 5536 5534 5534 5532 5530 5529 5528 5527 5527 5526 5526 5526 5524 5526 5526 5526 5526 5526 5526 5525 5525 5525 5525 5525 5524 5524 5524 5523 5523 5523 5523 5523 5524
5557 5554 5551 5547 5543 5539 5537 5534 5532 5529 5526 5524 5523 5522 5521 5519 5519 5518 5517 5516 5515 5515 5515 5515 5516 5516 5516 5516 5516 5516 5515 5515 5514 5514 5513 5512 5512 5512 5511 5511 5511 5511 5512
5548 5545 5541 5537 5534 5531 5528 5526 5524 5521 5519 5516 5514 5512 5511 5510 5509 5508 5507 5505 5505 5505 5505 5505 5506 5506 5506 5505 5505 5505 5504 5504 5503 5503 5502 5501 5500 5500 5499 5499 5499 5500 5501
5538 5535 5532 5528 5525 5522 5519 5517 5515 5512 5510 5507 5506 5504 5501 5499 5498 5497 5496 5495 5495 5495 5495 5494 5494 5495 5495 5494 5494 5493 5493 5492 5492 5491 5490 5490 5489 5489 5488 5488 5488 5489 5489
5528 5525 5523 5519 5516 5513 5511 5508 5506 5503 5501 5499 5497 5496 5493 5491 5490 5489 5487 5486 5485 5484 5484 5483 5483 5483 5483 5483 5482 5482 5481 5480 5480 5480 5479 5479 5478 5478 5478 5478 5478 5478 5478
5519 5516 5514 5510 5507 5504 5502 5499 5497 5494 5492 5490 5488 5487 5485 5482 5481 5479 5478 5476 5475 5474 5473 5473 5473 5472 5472 5471 5470 5470 5469 5468 5468 5468 5468 5467 5467 5467 5467 5467 5467 5467 5467
5509 5507 5504 5501 5498 5496 5493 5491 5488 5485 5482 5480 5478 5477 5475 5473 5471 5469 5468 5466 5465 5464 5463 5462 5462 5461 5461 5460 5459 5459 5457 5457 5456 5456 5456 5456 5456 5456 5456 5456 5456 5456 5456
5500 5497 5495 5492 5489 5486 5484 5481 5478 5475 5473 5471 5469 5467 5465 5462 5460 5459 5458 5456 5455 5454 5453 5452 5451 5451 5450 5449 5448 5448 5447 5446 5446 5445 5445 5444 5444 5444 5444 5444 5445 5446 5446
5490 5487 5485 5482 5480 5477 5474 5471 5468 5465 5463 5460 5458 5456 5454 5451 5449 5448 5447 5446 5445 5444 5443 5442 5441 5440 5440 5439 5438 5438 5437 5436 5435 5435 5435 5434 5434 5434 5434 5434 5435 5435 5436
5480 5477 5475 5472 5469 5466 5464 5461 5458 5455 5453 5450 5448 5445 5443 5441 5439 5438 5436 5435 5434 5434 5433 5432 5431 5430 5429 5429 5429 5428 5428 5427 5426 5426 5425 5425 5425 5425 5425 5424 5425 5426 5426